Location: Chicago
(41.8500°N, 87.6500°W)
Time: 15:37:00
(UTC-05:00)

ISS - Visible Passes

Search period start: 23 May 2017 00:00
Search period end: 02 June 2017 00:00
Orbit: 402 x 409 km, 51.6° (Epoch: 24 May)

Date Brightness Start Highest point End Pass type
(mag) Time Alt. Az. Time Alt. Az. Time Alt. Az.
23 May -1.0 00:25:10 17° NW 00:26:09 19° NNW 00:28:37 10° NNE visible
23 May -0.6 02:01:31 10° NNW 02:03:34 15° N 02:05:38 10° NE visible
23 May -2.0 03:37:45 10° NW 03:40:48 33° NNE 03:43:49 10° E visible
23 May -3.9 21:53:56 10° SW 21:57:11 60° SE 22:00:27 10° ENE visible
23 May -1.4 23:31:07 10° WNW 23:33:54 25° NNW 23:36:41 10° NE visible
24 May -0.6 01:09:15 10° NW 01:11:14 15° N 01:13:12 10° NE visible
24 May -1.3 02:45:51 10° NW 02:48:36 24° NNE 02:51:19 10° ENE visible
24 May -3.9 04:22:04 10° WNW 04:25:19 65° SW 04:28:33 10° SE visible
24 May -3.1 21:02:16 10° SSW 21:05:13 31° SE 21:08:12 10° ENE visible
24 May -2.1 22:38:37 10° W 22:41:41 35° NNW 22:44:45 10° NE visible
25 May -0.6 00:16:48 10° NW 00:18:53 16° N 00:20:59 10° NNE visible
25 May -0.9 01:53:53 10° NNW 01:56:19 19° NNE 01:58:44 10° ENE visible
25 May -3.5 03:30:00 10° NW 03:33:16 68° NNE 03:36:32 10° ESE visible
25 May -3.2 21:46:17 10° WSW 21:49:32 58° NNW 21:52:47 10° NE visible
25 May -0.8 23:24:11 10° WNW 23:26:33 18° NNW 23:28:54 10° NNE visible
26 May -0.7 01:01:50 10° NNW 01:03:58 16° N 01:06:07 10° NE visible
26 May -2.4 02:38:00 10° NW 02:41:08 39° NNE 02:44:14 10° E visible
26 May -2.9 04:14:43 10° WNW 04:17:31 26° SW 04:20:18 10° SSE visible
26 May -3.9 20:54:09 10° SW 20:57:26 78° SE 21:00:44 10° ENE visible
26 May -1.2 22:31:34 10° WNW 22:34:14 22° NNW 22:36:54 10° NE visible
27 May -0.6 00:09:36 10° NW 00:11:36 15° N 00:13:36 10° NE visible
27 May -1.6 01:46:02 10° NW 01:48:55 27° NNE 01:51:09 14° ENE visible
27 May -2.0 03:22:22 10° WNW 03:27:40 19° SSE 03:28:43 10° SE visible
27 May -1.7 21:38:59 10° W 21:41:57 30° NNW 21:44:56 10° NE visible
27 May -0.6 23:17:11 10° NW 23:19:13 15° N 23:21:15 10° NE visible
28 May -1.2 00:54:04 10° NW 00:56:37 20° NNE 00:57:28 18° NE visible
28 May -2.6 20:46:32 10° WSW 20:49:44 47° NNW 20:52:57 10° NE visible
28 May -0.7 22:24:35 10° NW 22:26:49 17° N 22:29:04 10° NNE visible
29 May -0.8 00:02:01 10° NNW 00:04:16 17° N 00:06:13 11° NE visible
29 May -1.1 01:38:09 10° NW 01:38:49 15° NW 01:38:49 15° NW visible
29 May -1.0 21:31:54 10° WNW 21:34:27 20° NNW 21:37:01 10° NE visible
29 May -0.7 23:09:49 10° NW 23:11:52 15° N 23:13:53 10° NE visible
30 May -1.4 00:46:08 10° NW 00:47:57 24° NNW 00:47:57 24° NNW visible
30 May -0.8 22:17:26 10° NW 22:19:26 15° N 22:21:26 10° NE visible
30 May -1.5 23:54:08 10° NW 23:56:48 22° NNE 23:57:14 22° NNE visible
31 May -0.8 21:24:51 10° NW 21:27:00 16° N 21:29:09 10° NNE visible
31 May -1.1 23:02:04 10° NNW 23:04:26 18° NNE 23:06:36 11° NE visible
01 Jun -1.2 00:38:10 10° NW 00:39:13 18° NW 00:39:13 18° NW visible
01 Jun -0.9 22:09:53 10° NNW 22:12:00 16° N 22:14:06 10° NE visible
01 Jun -2.1 23:46:07 10° NW 23:48:39 33° N 23:48:39 33° N visible
